Weather in Naracoorte

Australia     36°57′27″S   140°44′05″E
temp.,
°C
wind,
m/s
gust,
m/s
humid.,
%
clouds,
%
prec.,
mm/h
press.,
hPa
HPBL,
m
19 april, mon
mon1900:30+11nw339360 0.0 102047
03:30+13nw2587100 0.1 1018108
06:30+13nnw3683100 0.3 1017162
09:30+16nw5867100 0.4 1017690
12:30+19wnw795297 0.1 10151707
15:30+20wnw7104723 0.3 10131809
18:30+15wnw49702 0.1 1014248
21:30+13nw41086100 0.1 1014234
20 april, tue
tue2000:30+12nnw4109228 0.1 1012249
03:30+12nnw5128963 0.1 1011324
06:30+12nw51291100 0.3 1010347
09:30+11s71189100 7.9 1012521
12:30+14ssw7858100 0.3 10131568
15:30+13ssw8854100 0.4 10151686
18:30+9ssw410605 0.0 1017294
21:30+7ssw35715 0.0 1019100
21 april, wed
wed2100:30+7ssw22725 0.0 101912
03:30+6sse11709 0.0 101810
06:30+6n11705 0.0 101810
09:30+12nw335117 0.0 1019507
12:30+14w454494 0.0 10181787
15:30+14w4653100 0.0 10161235
18:30+12wnw2665100 0.0 1017248
21:30+11nnw3575100 0.0 1016114
22 april, thu
thu2200:30+12nnw3870100 0.1 1015277
03:30+11nnw4879100 0.2 1014221
06:30+9nnw378635 0.0 1014126
09:30+13w4680100 0.3 1015417
12:30+13sw4776100 0.4 1015704
15:30+14sw476325 0.4 1015803
18:30+12w237612 0.0 101790
21:30+11wnw2379100 0.1 101877
23 april, fri
fri2300:30+11wnw3482100 0.1 101891
03:30+12w24795 0.2 1018106
06:30+12w238379 0.0 102081
09:30+15ssw346542 0.1 1021867
12:30+17sw455193 0.1 10211517
15:30+18sw554418 0.1 10201677
18:30+12ssw37673 0.0 1023119
21:30+13sw236580 0.0 102447